Погода Верхняя Гутара

Погода Верхняя Гутара : погода сейчас, прогноз погоды и архив. Всё, что Вы хотите узнать о погоде Верхняя Гутара!

Поиск расширенной информации на нашем сайте:

Другие новости

Новости СМИ2

Главная страница сайта

Новости сайта

03.07.2017

Напоминаем, что на нашем специализированном сайте Метеоцентр.Азия вы можете получить высокодетализированные автоматические прогнозы погоды по пунктам России, СНГ и мира в авиационном формате (включающие направление и скорость ветра, видимость, явления погоды, количество и форму облачности, нижнюю и верхнюю границу облачности).

Рекомендуем: купить упаковку для тортов в Москве

Погода Верхняя Гутара - сегодня

Время (UTC), дата Ветер
(°,м/с) 
Видим.   Явления Облачность Т
(°С)
Тd
(°С)
f(%) Тe
(°С)
Pmin
(гПа)
dP
(гПа)
Po
(мм)
O2
(г/м3)
Тmin Tmax R s Состояние
почвы
09 17.08.17 тихо ()   20000 м  слаб. ливневой дождь  10/10 600 м кучево-дожд. 
[Cb cap]
+12.7 +10.7 88 +17  1014.4  0.7  677  259           
12 17.08.17 тихо ()   20000 м  в посл. час ливневой дождь  8/8 600 м кучево-дожд. 
[Cb cap]
+11.8 +10.6 92 +16  1015.1  0.5  678  260    +14.8     
15 17.08.17 тихо ()   20000 м    4/4 600 м кучево-дожд. 
[Cb cap]
+7.8 +7.4 97 +8  1018.2  1.2  679  264           
18 17.08.17 тихо ()   20000 м    10/10 600 м кучево-дожд. 
[Cb cap]
+7.5 +7.5 100 +8  1018.3  679  265           
21 17.08.17 тихо ()   4000 м  туман на расстоянии{ливн. осадки}  10/10 600 м кучево-дожд. 
[Cb cap]
+7.1 +6.7 97 +7  1018.4  679  265           
00 18.08.17 тихо ()   4000 м  туман на расстоянии{ливн. осадки}  10/10 600 м кучево-дожд. 
[Cb cap]
+6.8 +6.8 100 +7  1018.9  0.3  679  266  +6.6      мокрая 
03 18.08.17 тихо ()   20000 м    6/6 600 м кучево-дожд. 
[Cb cap]
+13 +7.7 70 +13  1016.3  679  260           
06 18.08.17 050 (СВ) 20000 м    5/5 600 м кучево-дожд. 
[Cb cap]
+17.2 +6 48 +19  1013.4  -1.2  678  256           
09 18.08.17 050 (СВ) 20000 м    6/6 600 м кучево-дожд. 
[Cb cap]
+18 +6.3 46 +19  1011.7  -1.2  677  255           
12 18.08.17 тихо ()   20000 м    3/3 600 м кучево-дожд. 
[Cb cap]
+15.9 +9.8 67 +19  1012.2  -0.2  677  256    +19.2       
15 18.08.17 тихо ()   20000 м    4/0 верхняя 
[Ci fib]
+9.4 +6.6 83 +9  1015.7  0.7  678  263           
18 18.08.17 тихо ()   20000 м    ясно 
+4.6 +3.9 95 +5  1017.7  -0.1  677  268           
21 18.08.17 тихо ()   4000 м  туман на расстоянии  10/0 верхняя 
[Ci fib]
+2.6 +2.3 98 +3  1017.8  -0.8  677  270           
00 19.08.17 270 (З) 2000 м  туман на расстоянии  10/0 верхняя 
[Ci fib]
+3.2 +3 99 +4  1016.7  -0.7  676  269  +1.7        влажная 
03 19.08.17 тихо ()   20000 м    10/1 600 м верхняя 
[Cu med, cong|Ci fib]
+13.1 +7.6 69 +13  1010.5  -1.7  675  258           
06 19.08.17 тихо ()   20000 м    10/3 600 м кучево-дожд., верхняя 
[Cb cap|Ci fib]
+21.5 +4.3 32 +22  1005.1  -1.9             
09 19.08.17 360 (С) 20000 м    10/10 600 м кучево-дожд. 
[Cb cap]
+18.6 +5.5 42 +20  1005.9  -0.3             
12 19.08.17 тихо ()   4000 м  ливневой дождь  10/10 600 м кучево-дожд. 
[Cb cap]
+12.8 +10.7 87 +13  1010.2  1.9      +21.8     
15 19.08.17 тихо ()   4000 м  ливневой дождь  10/10 600 м кучево-дожд. 
[Cb cap]
+10.7 +10.1 96 +14  1012.5  1.3  676  260           
18 19.08.17 тихо ()   10 км  туман на расстоянии{ливн. осадки}  10/10 600 м кучево-дожд. 
[Cb cap]
+10 +9.6 97 +13  1012.8  676  261           
21 19.08.17 тихо ()   4000 м  туман на расстоянии{ливн. осадки}  10/10 600 м кучево-дожд. 
[Cb cap]
+9.3 +9.1 99 +11  1012  -1  675  261           
00 20.08.17 тихо ()   4000 м  туман на расстоянии{ливн. осадки}  10/10 600 м кучево-дожд. 
[Cb cap]
+9.2 +8.8 97 +9  1011.4  -0.6    +9    16    мокрая 
03 20.08.17 тихо ()   4000 м  слаб. ливневой дождь  10/10 600 м кучево-дожд. 
[Cb cap]
+10.3 +9.3 94 +10  1011.1  0.2             
06 20.08.17 тихо ()   4000 м  слаб. ливневой дождь  10/8 600 м кучево-дожд., средняя 
[Cb cap|As trans]
+12.7 +11.2 91 +13  1009.2  -0.7             
09 20.08.17 020 (С) 10 км  {ливн. осадки}  10/8 600 м кучево-дожд., средняя 
[Cb cap|As trans]
+13.7 +8.3 70 +15  1009.1  0.1             
Время (UTC), дата Ветер
(°,м/с) 
Видим.   Явления Облачность Т
(°С)
Тd
(°С)
f(%) Тe
(°С)
Pmin
(гПа)
dP
(гПа)
Po
(мм)
O2
(г/м3)
Тmin Tmax R s Состояние
почвы

Для получения пояснительной информации подведите курсор к названию столбца.

ПОГОДА Верхняя Гутара - архив

Всё, что Вы хотите узнать о погоде Верхняя Гутара - удобно и подробно!

Выберите нужную дату (начиная с 1 января 2015* года) и нажмите кнопку "Найти".
Будут отображены архивные сводки погоды по пункту Верхняя Гутара, начиная с указанной даты.


Отображать данные в формате CSV (для использования в таблицах Excel)


Внимание! Наш архив погоды предназначен исключительно для личного некоммерческого использования в познавательных целях. Если Вам необходимы официальные справки о состоянии погоды (для производственных, юридических, коммерческих и т.п. целей), обращайтесь в органы Росгидромета.

*Примечание: данная дата относится к архиву по метеостанциям СССР (Россия, СНГ, Балтия).
Архив по метеостанциям Зарубежной Европы и Азии (кроме Китая) хранится 10 дней, по другим регионам земного шара (Китай, Африка, Америка, Австралия, Океания) - 1 день.

Верхняя Гутара - район местоположения метеостанции


Название, широта, долгота, высота метеостанции:
Верхняя Гутара 54.2°ш. 97°д. 984 м над ур. моря [Российская Федерация]

Дополнительная информация

В oтличие oт бoльшинства пoгoдных сайтoв мы публикуем пoдрoбную метеoинфoрмацию в детальнoм прoфессиoнальнoм фoрмате.

Характеристики температуры и влажнoсти вoздуха измеряются на высoте 2 м в тени вдали oт зданий и деревьев.
Скoрoсть ветра измеряется на высoте 10 м (на урoвне рoста челoвека скoрoсть ветра ниже в 1.5-2 раза). Если метеoстанция нахoдится в гoрoде или в лесу, тo скoрoсть ветра занижена на 2-4 м/с пo сравнению с oткрытым местoм. Скoрoсть ветра над акватoриями крупных рек и oзёр, а также на вершинах хoлмoв на 2-5 м/с выше, чем в oбычных услoвиях.
Атмoсфернoе давление в разных тoчках местнoсти мoжет значительнo oтличаться oт давления на метеoстанции, в зависимoсти oт услoвий рельефа (при пoдъёме на 10 м давление пoнижается примернo на 1 мм рт.ст.).